Weather History for KEED - October, 2012

Change the Weather History Date:

Saturday, October 6, 2012

  Actual Average Record
Temperature  
Mean Temperature 82 °F -  
Max Temperature 95 °F 93 °F 106 °F (1980)
Min Temperature 71 °F 67 °F 55 °F (2007)
Cooling Degree Days 17    
Growing Degree Days 32 (Base 50)    
Moisture  
Dew Point 32 °F    
Average Humidity 17    
Maximum Humidity 24    
Minimum Humidity 12    
Precipitation  
Precipitation 0.00 in - - ()
Sea Level Pressure  
Sea Level Pressure 29.75 in    
Wind  
Wind Speed 4 mph (West)    
Max Wind Speed 12 mph    
Max Gust Speed -    
Visibility 10 miles    
Events      
Averages and records for this station are not official NWS values.
T = Trace of Precipitation, MM = Missing Value Source: NWS Daily Summary

Daily Weather History Graph

Daily Weather History Graph

Search for Another Location

Airport or City:

Trip Planner

Search our weather history database for the weather conditions in past years. The results will help you decide how hot, cold, wet, or windy it might be!

Date:

Astronomy

Oct. 06, 2012 Rise Set
Actual Time 6:37 AM PDT 6:14 PM PDT
Civil Twilight 6:12 AM PDT 6:40 PM PDT
Nautical Twilight 5:42 AM PDT 7:09 PM PDT
Astronomical Twilight 5:13 AM PDT 7:38 PM PDT
Moon 10:44 PM PDT (10/6) 12:24 PM PDT (10/6)
Length of Visible Light 12h 27m
Length of Day
11h 37m
Waning Gibbous, 64% of the Moon is Illuminated
Oct 6
Waning Gibbous
Oct 8
Last Quarter
Oct 15
New
Oct 21
First Quarter
Oct 29
Full

Hourly Weather History & Observations

Time (PDT) Temp. Dew Point Humidity Pressure Visibility Wind Dir Wind Speed Gust Speed Precip Events Conditions
12:56 AM 79.0 °F 30.9 °F 17% 29.78 in 10.0 mi Calm Calm - N/A   Clear
1:56 AM 77.0 °F 30.0 °F 18% 29.78 in 10.0 mi NW 4.6 mph - N/A   Clear
2:56 AM 73.9 °F 30.9 °F 21% 29.77 in 10.0 mi WSW 4.6 mph - N/A   Clear
3:56 AM 73.0 °F 30.9 °F 21% 29.76 in 10.0 mi Calm Calm - N/A   Clear
4:56 AM 72.0 °F 30.9 °F 22% 29.77 in 10.0 mi WNW 4.6 mph - N/A   Clear
5:56 AM 71.1 °F 32.0 °F 24% 29.78 in 10.0 mi WNW 4.6 mph - N/A   Clear
6:56 AM 72.0 °F 32.0 °F 23% 29.79 in 10.0 mi WNW 5.8 mph - N/A   Clear
7:56 AM 73.9 °F 33.1 °F 22% 29.80 in 10.0 mi NNW 5.8 mph - N/A   Clear
8:56 AM 78.1 °F 33.1 °F 19% 29.81 in 10.0 mi North 3.5 mph - N/A   Clear
9:56 AM 82.9 °F 33.1 °F 17% 29.81 in 10.0 mi NNE 3.5 mph - N/A   Clear
10:56 AM 84.9 °F 34.0 °F 16% 29.79 in 10.0 mi NE 4.6 mph - N/A   Clear
11:56 AM 88.0 °F 37.0 °F 16% 29.78 in 10.0 mi ENE 5.8 mph - N/A   Clear
12:56 PM 90.0 °F 35.1 °F 14% 29.75 in 10.0 mi Variable 3.5 mph - N/A   Clear
1:56 PM 93.0 °F 35.1 °F 13% 29.72 in 10.0 mi Calm Calm - N/A   Clear
2:56 PM 93.0 °F 35.1 °F 13% 29.71 in 10.0 mi ESE 4.6 mph - N/A   Clear
3:56 PM 93.0 °F 34.0 °F 12% 29.70 in 10.0 mi Variable 3.5 mph - N/A   Clear
4:56 PM 93.9 °F 33.1 °F 12% 29.69 in 10.0 mi SSE 4.6 mph - N/A   Clear
5:56 PM 91.9 °F 33.1 °F 12% 29.68 in 10.0 mi SSW 4.6 mph - N/A   Clear
6:56 PM 88.0 °F 30.0 °F 12% 29.70 in 10.0 mi WSW 9.2 mph - N/A   Clear
7:56 PM 86.0 °F 30.0 °F 13% 29.70 in 10.0 mi West 10.4 mph - N/A   Clear
8:56 PM 82.9 °F 30.0 °F 15% 29.71 in 10.0 mi WSW 10.4 mph - N/A   Clear
9:56 PM 82.9 °F 30.9 °F 15% 29.71 in 10.0 mi WSW 11.5 mph - N/A   Clear
10:56 PM 80.1 °F 30.9 °F 17% 29.72 in 10.0 mi Calm Calm - N/A   Clear
11:56 PM 75.9 °F 30.0 °F 19% 29.72 in 10.0 mi West 6.9 mph - N/A   Clear